Date String (YYYY-MM-DD hh:mm:ss) UTC,Instrument flags,Ambient pressure (hPa),Sample flow (lpm),Bypass flow (lpm),Sample temperature (°C),Ambient temperature (°C),ASC tube jacket temperature (°C),LED temperature (°C),Box temperature (°C),Sample RH (%),Span deviation,Mass concentration (μg/m³),Mass concentration (μg/m³),Mass concentration (μg/m³)
DateTimeUTC,F1_M11,P_M11,Q1_M11,Q2_M11,T1_M11,T2_M11,T3_M11,T4_M11,T5_M11,U1_M11,ZSPAN_M11,X2_M11,X0_M11,X1_M11
2022-11-17 19:00:00,,0833.1,5.00,0.00,21.7,21.7,00.0,30.5,23.6,12.2,0000.0,0004.98,0008.70,0004.75
2022-11-17 19:01:00,,0833.1,5.01,0.00,21.7,21.3,00.0,30.5,23.6,12.1,0000.0,0004.98,0008.65,0004.77
2022-11-17 19:02:00,,0833.1,5.00,0.00,21.7,21.0,00.0,30.5,23.5,12.3,0000.0,0004.99,0008.76,0004.78
2022-11-17 19:03:00,,0833.1,5.00,0.00,21.7,20.8,00.0,30.6,23.5,12.4,0000.0,0005.00,0009.14,0004.79
2022-11-17 19:04:00,,0833.1,5.00,0.00,21.7,20.6,00.0,30.6,23.5,12.4,0000.0,0004.98,0009.06,0004.80
2022-11-17 19:05:00,,0833.1,4.99,0.00,21.7,20.4,00.0,30.6,23.4,12.5,0000.0,0005.00,0008.31,0004.81
2022-11-17 19:06:00,,0833.1,4.99,0.00,21.6,20.3,00.0,30.6,23.4,12.7,0000.0,0005.00,0008.22,0004.82
2022-11-17 19:07:00,,0833.0,5.00,0.00,21.6,20.2,00.0,30.6,23.3,12.6,0000.0,0005.02,0008.25,0004.84
2022-11-17 19:08:00,,0833.1,5.00,0.00,21.6,20.2,00.0,30.6,23.3,12.7,0000.0,0005.06,0008.13,0004.85
2022-11-17 19:09:00,,0833.1,5.00,0.00,21.6,20.1,00.0,30.6,23.3,12.4,0000.0,0005.07,0008.16,0004.85
2022-11-17 19:10:00,,0833.1,5.00,0.00,21.6,20.0,00.0,30.6,23.3,12.3,0000.0,0005.05,0008.05,0004.84
2022-11-17 19:11:00,,0833.1,5.00,0.00,21.5,20.0,00.0,30.6,23.2,12.4,0000.0,0005.04,0008.04,0004.83
2022-11-17 19:12:00,,0833.0,5.00,0.00,21.5,20.0,00.0,30.6,23.2,12.6,0000.0,0005.02,0009.09,0004.80
2022-11-17 19:13:00,,0833.0,5.00,0.00,21.5,20.0,00.0,30.5,23.2,12.7,0000.0,0004.97,0008.93,0004.77
2022-11-17 19:14:00,,0833.0,4.99,0.00,21.6,20.7,00.0,30.5,23.4,12.6,0000.0,0004.92,0008.48,0004.72
2022-11-17 19:15:00,,0833.0,5.00,0.00,21.7,21.9,00.0,30.5,23.6,12.3,0000.0,0004.88,0008.45,0004.67
2022-11-17 19:16:00,,0833.0,5.00,0.00,21.8,22.1,00.0,30.5,23.8,12.2,0000.0,0004.85,0008.47,0004.64
2022-11-17 19:17:00,,0833.0,4.99,0.00,21.8,21.6,00.0,30.6,23.7,12.2,0000.0,0004.84,0008.55,0004.62
2022-11-17 19:18:00,,0833.1,5.01,0.00,21.8,21.3,00.0,30.6,23.6,12.1,0000.0,0004.80,0008.49,0004.58
2022-11-17 19:19:00,,0833.0,5.00,0.00,21.8,21.0,00.0,30.6,23.6,12.1,0000.0,0004.72,0008.35,0004.55
2022-11-17 19:20:00,,0833.0,4.99,0.00,21.8,20.7,00.0,30.6,23.5,12.3,0000.0,0004.68,0008.53,0004.53
2022-11-17 19:21:00,,0833.0,4.99,0.00,21.7,20.4,00.0,30.6,23.4,12.3,0000.0,0004.67,0008.60,0004.53
2022-11-17 19:22:00,,0832.9,5.00,0.00,21.7,20.2,00.0,30.6,23.3,12.4,0000.0,0004.66,0008.54,0004.52
2022-11-17 19:23:00,,0832.9,5.00,0.00,21.7,20.0,00.0,30.6,23.3,12.5,0000.0,0004.66,0007.49,0004.52
2022-11-17 19:24:00,,0832.8,5.00,0.00,21.6,19.9,00.0,30.6,23.2,12.7,0000.0,0004.70,0007.85,0004.55
2022-11-17 19:25:00,,0832.8,5.00,0.00,21.6,19.9,00.0,30.6,23.2,12.7,0000.0,0004.74,0008.12,0004.57
2022-11-17 19:26:00,,0832.8,5.00,0.00,21.6,19.9,00.0,30.6,23.2,12.7,0000.0,0004.75,0008.13,0004.58
2022-11-17 19:27:00,,0832.8,5.00,0.00,21.5,19.8,00.0,30.6,23.2,12.6,0000.0,0004.74,0008.05,0004.59
2022-11-17 19:28:00,,0832.9,5.00,0.00,21.5,19.8,00.0,30.6,23.2,12.6,0000.0,0004.72,0007.94,0004.59
2022-11-17 19:29:00,,0832.9,5.00,0.00,21.5,19.7,00.0,30.5,23.1,12.5,0000.0,0004.74,0007.98,0004.60
2022-11-17 19:30:00,,0832.9,5.00,0.00,21.5,19.7,00.0,30.5,23.1,12.3,0000.0,0004.77,0008.03,0004.60
2022-11-17 19:31:00,,0832.9,5.01,0.00,21.4,19.8,00.0,30.5,23.1,12.5,0000.0,0004.78,0007.77,0004.60
2022-11-17 19:32:00,,0832.9,4.99,0.00,21.5,20.9,00.0,30.4,23.3,12.7,0000.0,0004.84,0007.76,0004.60
2022-11-17 19:33:00,,0832.9,4.99,0.00,21.6,21.9,00.0,30.4,23.6,12.6,0000.0,0004.87,0007.81,0004.60
2022-11-17 19:34:00,,0832.9,5.01,0.00,21.7,21.7,00.0,30.5,23.6,12.5,0000.0,0004.87,0007.94,0004.58
2022-11-17 19:35:00,,0832.8,5.01,0.00,21.7,21.3,00.0,30.5,23.5,12.5,0000.0,0004.86,0007.65,0004.57
2022-11-17 19:36:00,,0832.9,4.98,0.00,21.7,20.9,00.0,30.6,23.5,12.4,0000.0,0004.83,0007.44,0004.56
2022-11-17 19:37:00,,0832.8,5.00,0.00,21.7,20.6,00.0,30.6,23.4,12.3,0000.0,0004.83,0007.62,0004.55
2022-11-17 19:38:00,,0832.8,5.00,0.00,21.6,20.4,00.0,30.6,23.4,12.3,0000.0,0004.82,0007.69,0004.53
2022-11-17 19:39:00,,0832.7,5.01,0.00,21.6,20.3,00.0,30.6,23.3,12.5,0000.0,0004.82,0007.80,0004.51
2022-11-17 19:40:00,,0832.7,5.01,0.00,21.6,20.2,00.0,30.6,23.3,12.5,0000.0,0004.79,0008.02,0004.48
2022-11-17 19:41:00,,0832.7,5.01,0.00,21.6,20.2,00.0,30.6,23.3,12.5,0000.0,0004.76,0008.10,0004.46
2022-11-17 19:42:00,,0832.7,4.99,0.00,21.6,20.2,00.0,30.6,23.3,12.5,0000.0,0004.74,0008.10,0004.44
2022-11-17 19:43:00,,0832.7,5.00,0.00,21.6,20.2,00.0,30.6,23.2,12.6,0000.0,0004.67,0007.98,0004.42
2022-11-17 19:44:00,,0832.7,5.00,0.00,21.5,20.1,00.0,30.6,23.2,12.8,0000.0,0004.66,0008.22,0004.43
2022-11-17 19:45:00,,0832.7,5.00,0.00,21.5,20.1,00.0,30.6,23.2,12.9,0000.0,0004.68,0008.23,0004.47
2022-11-17 19:46:00,,0832.8,5.00,0.00,21.5,20.2,00.0,30.5,23.3,12.7,0000.0,0004.70,0008.17,0004.50
2022-11-17 19:47:00,,0832.8,5.01,0.00,21.6,21.2,00.0,30.5,23.5,12.5,0000.0,0004.75,0008.26,0004.55
2022-11-17 19:48:00,,0832.8,5.00,0.00,21.7,22.1,00.0,30.5,23.7,12.5,0000.0,0004.79,0008.14,0004.60
2022-11-17 19:49:00,,0832.7,5.00,0.00,21.8,21.9,00.0,30.5,23.8,12.5,0000.0,0004.87,0008.22,0004.67
2022-11-17 19:50:00,,0832.7,4.99,0.00,21.8,21.5,00.0,30.6,23.7,12.4,0000.0,0004.94,0008.20,0004.74
2022-11-17 19:51:00,,0832.7,5.01,0.00,21.8,21.1,00.0,30.6,23.6,12.3,0000.0,0005.00,0008.10,0004.81
2022-11-17 19:52:00,,0832.7,5.01,0.00,21.8,20.9,00.0,30.7,23.6,12.2,0000.0,0005.07,0008.01,0004.88
2022-11-17 19:53:00,,0832.7,4.99,0.00,21.8,20.7,00.0,30.7,23.5,12.2,0000.0,0005.16,0008.10,0004.96
2022-11-17 19:54:00,,0832.7,4.99,0.00,21.8,20.6,00.0,30.7,23.5,12.3,0000.0,0005.26,0008.22,0005.05
2022-11-17 19:55:00,,0832.7,5.00,0.00,21.8,20.5,00.0,30.7,23.5,12.4,0000.0,0005.32,0008.14,0005.12
2022-11-17 19:56:00,,0832.7,5.01,0.00,21.7,20.4,00.0,30.7,23.4,12.5,0000.0,0005.35,0007.93,0005.16
2022-11-17 19:57:00,,0832.7,5.01,0.00,21.7,20.4,00.0,30.7,23.4,12.5,0000.0,0005.37,0007.94,0005.19
2022-11-17 19:58:00,,0832.6,5.01,0.00,21.7,20.3,00.0,30.7,23.4,12.5,0000.0,0005.41,0007.98,0005.22
2022-11-17 19:59:00,,0832.7,4.99,0.00,21.7,20.2,00.0,30.7,23.4,12.5,0000.0,0005.45,0008.04,0005.26
